Regional Weather Roundup
Issued by NWS

Home | Current Version | Previous Version | Text Only | Print | Product List | Glossary On
Versions: 1 2 3 4 5 6 7 8 9 10 11 12 13 14 15 16 17 18 19 20 21 22 23 24 25 26 27
000
ASUS42 KKEY 251710
RWRKEY

FLORIDA REGIONAL WEATHER ROUNDUP FOR THE FLORIDA KEYS
NATIONAL WEATHER SERVICE KEY WEST FLORIDA
1200 PM EST SUN FEB 25 2018

...SOUTH FLORIDA AND THE KEYS...

CITY           SKY/WX    TMP DP  RH WIND       PRES   REMARKS
FORT MYERS     FAIR      83  66  56 S9        30.16F
SW REGIONAL AP FAIR      81  67  62 S9        30.17F
NAPLES         FAIR      85  68  56 S9G20     30.17F
MIAMI          PTSUNNY   82  69  64 SE12      30.18F
WEST KENDALL   FAIR      82  66  58 SE12G21   30.18F
HOMESTEAD      FAIR      81  68  64 E9        30.18
MARATHON       FAIR      82  68  62 SE12G17   30.16F
KEY WEST INTL  FAIR      81  70  69 SE13      30.16F

...INTERNATIONAL WEATHER...

CITY           SKY/WX    TMP DP  RH WIND       PRES   REMARKS
NASSAU BAHAMAS PTSUNNY   82  66  57 SE10      30.20F
CANCUN MEXICO  PTSUNNY   82  70  65 SE14      30.10F
COZUMEL MEXICO PTSUNNY   81  73  78 NE7       30.07F

ADJACENT COASTAL WATERS...

STATION/POSITION TIME  SKY/WX   TEMP    WIND        PRES    WAVE
                                AIR SEA DIR/SP/G            HT/PER
                 (UTC)          (F)     (DEG/KT/KT) (MB)    (FT/S)
PULASKI SHOAL LI 1700            78     140/ 13/ 14 1021.0F
SAND KEY         1650            77                 1021.8F
LONG KEY         1600                   160/ 10       N/A
MOLASSES REEF    1700            76 78  130/ 12/ 14 1022.1F
FOWEY ROCKS      1700            76 77  120/ 12/ 13 1022.7F
Buoy 42097       1630               75                N/A     3/ 4

$$




USA.gov is the U.S. government's official web portal to all federal, state and local government web resources and services.